GW6834 Weather Reports


Display with metric or nautical units.
time (UTC)temp
F
wind
direction
speed
MPH
gust
MPH
rain 1hr
in
rain 24hr
in
rain mn
in
humidity
%
barometer
mb
20260507023543 79 203 6.0 7.0 7.17 0.00 0.00 79 31.1
20260507023041 80 204 6.0 7.0 8.69 0.00 0.00 80 30.1
20260507022609 80 199 5.0 6.0 1.03 0.00 0.00 80 30.3
20260507022042 81 203 4.0 6.0 1.22 0.00 0.00 81 28.8
20260507021521 82 184 5.0 8.0 1.41 0.00 0.00 82 27.2
20260507021042 82 172 3.0 5.0 1.61 0.00 0.00 82 26.8
20260507020523 82 164 4.0 7.0 1.81 0.00 0.00 82 25.9
20260507020020 82 154 5.0 7.0 2.02 0.00 0.00 82 25.5
20260507015608 83 150 6.0 9.0 2.23 0.00 0.00 83 25.6
20260507015045 83 146 7.0 10.0 2.45 0.00 0.00 83 25.6
20260507014522 83 149 7.0 10.0 2.67 0.00 0.00 83 26.0
20260507014021 83 152 6.0 10.0 2.89 0.00 0.00 83 26.0
20260507013523 83 152 6.0 10.0 3.12 0.00 0.00 84 25.5
20260507013020 84 150 8.0 11.0 3.34 0.00 0.00 84 24.8
20260507012610 84 149 9.0 12.0 3.57 0.00 0.00 84 24.1
20260507012100 84 142 6.0 10.0 3.79 0.00 0.00 84 23.8
20260507011604 84 139 8.0 12.0 4.02 0.00 0.00 84 23.6
20260507010523 84 139 8.0 12.0 4.48 0.00 0.00 84 22.7
20260507010022 84 129 9.0 13.0 4.70 0.00 0.00 84 22.8
20260507005547 84 133 8.0 13.0 4.92 0.00 0.00 84 23.2
20260507005051 84 132 8.0 12.0 5.15 0.00 0.00 84 23.3
20260507004523 85 125 10.0 13.0 5.37 0.00 0.00 85 22.5
20260507004022 85 117 10.0 15.0 5.59 0.00 0.00 85 22.2
20260507003523 85 131 10.0 13.0 5.81 0.00 0.00 85 22.2
20260507003044 85 128 8.0 13.0 6.03 0.00 0.00 85 22.5
20260507002554 85 126 10.0 14.0 6.25 0.00 0.00 85 22.2
20260507002049 85 131 8.0 12.0 6.46 0.00 0.00 85 21.8
20260507001525 85 117 10.0 14.0 6.67 0.00 0.00 85 22.0
20260507001043 85 124 9.0 13.0 6.88 0.00 0.00 85 22.0
20260507000549 85 120 11.0 14.0 7.09 0.00 0.00 85 22.0
20260507000049 85 115 11.0 14.0 7.29 0.00 0.00 85 22.0
20260506235647 85 120 10.0 14.0 7.50 0.00 0.00 85 21.8
20260506235141 85 127 9.0 14.0 7.70 0.00 0.00 85 22.1
20260506234545 85 127 8.0 12.0 7.89 0.00 0.00 85 22.9
20260506234022 85 112 11.0 16.0 8.08 0.00 0.00 85 22.6
20260506233522 85 121 11.0 14.0 8.27 0.00 0.00 85 21.9
20260506233023 85 113 11.0 15.0 8.46 0.00 0.00 85 22.5
20260506232548 85 111 11.0 14.0 8.64 0.00 0.00 85 22.5
20260506232051 85 120 10.0 15.0 8.82 0.00 0.00 85 22.7
20260506231544 85 125 10.0 16.0 8.99 0.00 0.00 85 22.4
20260506231042 85 118 11.0 16.0 9.16 0.00 0.00 85 22.6
20260506230525 85 116 12.0 16.0 9.33 0.00 0.00 85 22.8
20260506230043 85 129 8.0 13.0 9.49 0.00 0.00 85 22.1
20260506225558 85 134 9.0 14.0 9.65 0.00 0.00 85 22.2
20260506225053 85 126 9.0 14.0 9.80 0.00 0.00 85 22.5
20260506224521 85 125 10.0 18.0 9.95 0.00 0.00 85 22.3
20260506224043 85 136 8.0 16.0 1.01 0.00 0.00 85 22.1
20260506223523 85 132 9.0 15.0 1.02 0.00 0.00 85 22.1
20260506223038 85 135 8.0 14.0 1.03 0.00 0.00 85 22.0
20260506222637 85 128 9.0 14.0 1.05 0.00 0.00 85 22.2
20260506222134 85 131 9.0 16.0 1.06 0.00 0.00 85 22.5
20260506221524 85 117 8.0 12.0 1.07 0.00 0.00 86 21.7
20260506221046 85 130 8.0 13.0 1.08 0.00 0.00 86 21.8
20260506220527 85 122 8.0 13.0 1.09 0.00 0.00 85 21.7
20260506220114 85 120 7.0 14.0 1.10 0.00 0.00 85 21.6
20260506215619 85 153 6.0 11.0 1.11 0.00 0.00 85 21.6
20260506215111 85 120 8.0 14.0 1.12 0.00 0.00 85 22.1
20260506214522 85 136 7.0 14.0 1.13 0.00 0.00 85 22.3
20260506214044 84 127 8.0 14.0 1.14 0.00 0.00 84 22.4
20260506213525 84 108 9.0 15.0 1.15 0.00 0.00 84 22.0
20260506213022 84 114 8.0 14.0 1.15 0.00 0.00 84 22.5
20260506212617 85 128 8.0 13.0 1.16 0.00 0.00 85 22.3
20260506212105 85 144 7.0 12.0 1.17 0.00 0.00 85 22.3
20260506211544 85 122 8.0 14.0 1.17 0.00 0.00 85 22.6
20260506211045 84 155 7.0 15.0 1.18 0.00 0.00 84 22.5
20260506210545 84 148 6.0 11.0 1.18 0.00 0.00 84 23.1
20260506210032 84 126 8.0 12.0 1.19 0.00 0.00 84 22.9
20260506205618 84 139 8.0 14.0 1.19 0.00 0.00 84 22.8
20260506205138 84 132 7.0 11.0 1.19 0.00 0.00 84 23.0
20260506204522 84 108 6.0 12.0 1.19 0.00 0.00 84 22.6
20260506204023 84 121 8.0 13.0 1.19 0.00 0.00 84 22.6
20260506203553 84 129 6.0 14.0 1.19 0.00 0.00 84 22.7
20260506203038 84 174 6.0 10.0 1.20 0.00 0.00 84 23.0
20260506202715 83 120 7.0 12.0 1.20 0.00 0.00 83 23.6
20260506202113 83 179 6.0 11.0 1.20 0.00 0.00 83 24.2
20260506201529 83 118 6.0 12.0 1.20 0.00 0.00 83 24.9
20260506201044 83 97 7.0 12.0 1.19 0.00 0.00 83 25.3
20260506200541 82 138 6.0 13.0 1.19 0.00 0.00 82 26.2
20260506200042 82 144 8.0 13.0 1.19 0.00 0.00 82 26.3
20260506195617 83 115 6.0 10.0 1.19 0.00 0.00 83 26.6
20260506195132 82 152 5.0 11.0 1.19 0.00 0.00 82 26.8
20260506194523 82 154 6.0 10.0 1.19 0.00 0.00 82 27.1
20260506194025 81 132 4.0 13.0 1.18 0.00 0.00 81 27.3
20260506193524 81 98 4.0 9.0 1.18 0.00 0.00 81 26.8
20260506193037 81 153 5.0 10.0 1.18 0.00 0.00 81 26.8
20260506192636 81 105 6.0 10.0 1.17 0.00 0.00 81 26.7
20260506192108 82 153 5.0 9.0 1.17 0.00 0.00 82 26.8
20260506191521 80 60 2.0 5.0 1.16 0.00 0.00 80 26.6
20260506191103 80 38 3.0 5.0 1.16 0.00 0.00 80 26.5
20260506190623 81 104 4.0 10.0 1.15 0.00 0.00 81 26.0
20260506190041 80 24 2.0 5.0 1.15 0.00 0.00 80 26.0
20260506185621 79 79 4.0 6.0 1.14 0.00 0.00 79 26.4
20260506185059 79 211 4.0 8.0 1.13 0.00 0.00 79 27.2
20260506184546 79 139 4.0 7.0 1.13 0.00 0.00 79 27.0
20260506184047 79 78 3.0 5.0 1.12 0.00 0.00 79 27.3
20260506183545 80 140 4.0 9.0 1.11 0.00 0.00 80 27.4
20260506183038 79 167 3.0 9.0 1.10 0.00 0.00 79 28.1
20260506182629 78 174 2.0 5.0 1.09 0.00 0.00 78 28.8
20260506182107 78 149 4.0 7.0 1.08 0.00 0.00 78 29.2
20260506181524 77 271 3.0 6.0 1.07 0.00 0.00 77 29.2
20260506181121 78 232 3.0 7.0 1.06 0.00 0.00 78 29.7
20260506180603 77 164 3.0 8.0 1.04 0.00 0.00 77 30.0
20260506180048 76 281 3.0 5.0 1.03 0.00 0.00 76 30.9
20260506175618 76 274 2.0 5.0 1.02 0.00 0.00 76 30.7
20260506175103 76 165 3.0 7.0 1.01 0.00 0.00 76 31.0
20260506174544 76 180 5.0 8.0 9.98 0.00 0.00 76 31.3
20260506174023 76 194 3.0 7.0 9.84 0.00 0.00 76 31.9
20260506173548 76 177 4.0 6.0 9.70 0.00 0.00 76 32.3
20260506173046 75 134 1.0 4.0 9.56 0.00 0.00 75 31.6
20260506172618 74 133 3.0 6.0 9.41 0.00 0.00 74 32.9
20260506172128 74 149 4.0 8.0 9.25 0.00 0.00 74 34.2
20260506171524 74 177 5.0 8.0 9.09 0.00 0.00 74 34.6
20260506171118 74 172 4.0 8.0 8.92 0.00 0.00 74 35.2
20260506170715 73 186 5.0 9.0 8.75 0.00 0.00 73 36.2
20260506165639 72 201 5.0 8.0 8.41 0.00 0.00 72 37.1
20260506165105 72 173 3.0 7.0 8.23 0.00 0.00 72 36.5
20260506164525 72 181 4.0 8.0 8.05 0.00 0.00 72 35.7
20260506164023 72 167 3.0 7.0 7.86 0.00 0.00 72 35.6
20260506163547 72 136 3.0 6.0 7.67 0.00 0.00 72 36.8
20260506163116 71 307 1.0 4.0 7.47 0.00 0.00 71 37.5
20260506162650 71 132 3.0 5.0 7.27 0.00 0.00 71 37.6
20260506162127 70 332 2.0 3.0 7.07 0.00 0.00 70 39.0
20260506161527 70 293 2.0 4.0 6.86 0.00 0.00 70 39.4
20260506161044 69 317 2.0 3.0 6.66 0.00 0.00 69 40.3
20260506160546 69 313 2.0 3.0 6.45 0.00 0.00 69 40.9
20260506160022 69 271 1.0 3.0 6.24 0.00 0.00 69 41.5
20260506155552 68 271 2.0 4.0 6.03 0.00 0.00 68 42.1
20260506155043 68 251 2.0 4.0 5.82 0.00 0.00 68 42.3
20260506154523 68 229 3.0 5.0 5.60 0.00 0.00 68 42.1
20260506154024 68 166 1.0 3.0 5.38 0.00 0.00 68 42.1
20260506153545 68 163 2.0 3.0 5.16 0.00 0.00 68 42.9
20260506153024 68 164 1.0 3.0 4.94 0.00 0.00 68 43.1
20260506152539 67 157 1.0 3.0 4.72 0.00 0.00 67 43.7
20260506152046 67 268 1.0 3.0 4.50 0.00 0.00 67 44.6
20260506151522 66 315 2.0 3.0 4.28 0.00 0.00 66 46.5
20260506151043 66 293 3.0 5.0 4.06 0.00 0.00 66 46.6
20260506150530 65 301 2.0 4.0 3.83 0.00 0.00 65 47.6
20260506150058 65 327 4.0 6.0 3.61 0.00 0.00 65 47.8
20260506145634 65 352 3.0 5.0 3.39 0.00 0.00 65 47.8
20260506145200 65 342 2.0 4.0 3.16 0.00 0.00 65 48.2
20260506144522 64 325 2.0 4.0 2.90 0.00 0.00 64 49.3
20260506144021 64 314 3.0 4.0 2.67 0.00 0.00 64 49.4
20260506143654 64 300 3.0 4.0 2.44 0.00 0.00 64 49.9
20260506143217 63 313 4.0 5.0 2.19 0.00 0.00 63 50.2
20260506142859 63 310 3.0 5.0 1.95 0.00 0.00 63 50.6
20260506142156 63 310 2.0 5.0 1.71 0.00 0.00 63 51.6
20260506141543 62 311 2.0 4.0 1.49 0.00 0.00 62 52.9
20260506141129 62 310 3.0 4.0 1.30 0.00 0.00 62 53.6
20260506140742 62 310 3.0 4.0 1.12 0.00 0.00 62 53.5
20260506140238 61 316 2.0 3.0 9.46 0.00 0.00 61 54.4
20260506135838 61 308 1.0 3.0 7.76 0.00 0.00 61 54.5
20260506135144 61 312 2.0 3.0 6.26 0.00 0.00 61 54.6
20260506134522 60 292 1.0 2.0 5.33 0.00 0.00 60 55.6
20260506134024 60 320 0.0 2.0 5.43 0.00 0.00 60 55.3
20260506133522 60 320 0.0 2.0 5.43 0.00 0.00 60 55.3
20260506133043 60 320 0.0 2.0 5.43 0.00 0.00 60 55.3
20260506132642 60 320 0.0 2.0 5.43 0.00 0.00 60 55.3
20260506132235 60 320 0.0 2.0 5.43 0.00 0.00 60 55.3
20260506131521 60 320 0.0 2.0 5.43 0.00 0.00 60 55.3
20260506131102 60 320 0.0 2.0 5.43 0.00 0.00 60 55.3
20260506130554 60 320 0.0 2.0 5.43 0.00 0.00 60 55.3
20260506125654 60 320 0.0 2.0 5.43 0.00 0.00 60 55.3
20260506125125 60 320 0.0 2.0 5.43 0.00 0.00 60 55.3
20260506124607 60 320 0.0 2.0 5.43 0.00 0.00 60 55.3
20260506124023 60 320 0.0 2.0 5.43 0.00 0.00 60 55.3
20260506123524 60 320 0.0 2.0 5.43 0.00 0.00 60 55.3
20260506123025 60 320 0.0 2.0 5.43 0.00 0.00 60 55.3
20260506122633 60 320 0.0 2.0 5.43 0.00 0.00 60 55.3
20260506122035 60 320 0.0 2.0 5.43 0.00 0.00 60 55.3
20260506121545 60 320 0.0 2.0 5.43 0.00 0.00 60 55.3
20260506121042 60 324 2.0 3.0 5.43 0.00 0.00 60 54.8
20260506120534 60 318 2.0 3.0 5.43 0.00 0.00 60 54.4
20260506120023 60 308 3.0 4.0 5.43 0.00 0.00 60 54.4
20260506115620 60 309 3.0 5.0 5.43 0.00 0.00 60 54.6
20260506115133 60 293 2.0 4.0 5.43 0.00 0.00 60 55.3
20260506114524 60 278 2.0 5.0 5.43 0.00 0.00 60 55.8
20260506114023 59 266 3.0 4.0 5.44 0.00 0.00 59 55.9
20260506113544 60 264 3.0 4.0 5.44 0.00 0.00 60 55.3
20260506113023 60 277 4.0 5.0 5.44 0.00 0.00 60 54.8
20260506112547 60 287 4.0 5.0 5.44 0.00 0.00 60 54.7
20260506112106 60 292 4.0 5.0 5.44 0.00 0.00 60 53.8
20260506111524 60 295 4.0 7.0 5.44 0.00 0.00 60 54.0
20260506111043 60 295 4.0 6.0 5.44 0.00 0.00 60 54.3
20260506110546 60 294 4.0 6.0 5.44 0.00 0.00 60 54.1
20260506110125 60 287 4.0 6.0 5.44 0.00 0.00 60 54.3
20260506105701 60 298 4.0 6.0 5.45 0.00 0.00 60 54.4
20260506105124 60 310 4.0 6.0 5.45 0.00 0.00 60 54.4
20260506104546 60 300 3.0 4.0 5.45 0.00 0.00 60 54.8
20260506104024 60 305 2.0 3.0 5.45 0.00 0.00 60 54.4
20260506103526 60 297 2.0 3.0 5.46 0.00 0.00 60 53.8
20260506103114 61 292 2.0 3.0 5.46 0.00 0.00 61 53.0
20260506102705 61 299 1.0 3.0 5.46 0.00 0.00 61 52.7
20260506102204 61 285 2.0 5.0 5.47 0.00 0.00 61 52.1
20260506101551 61 282 3.0 4.0 5.47 0.00 0.00 61 51.8
20260506101044 62 286 3.0 4.0 5.47 0.00 0.00 62 50.9
20260506100540 62 292 3.0 4.0 5.47 0.00 0.00 62 50.2
20260506100105 62 303 4.0 6.0 5.48 0.00 0.00 62 49.7
20260506095703 62 307 4.0 7.0 5.48 0.00 0.00 62 49.4
20260506095124 62 306 4.0 7.0 5.48 0.00 0.00 62 49.2
20260506094545 62 308 4.0 7.0 5.48 0.00 0.00 62 49.2
20260506094024 62 308 5.0 8.0 5.48 0.00 0.00 62 49.1
20260506093525 63 306 4.0 8.0 5.48 0.00 0.00 63 48.9
20260506093021 63 310 5.0 8.0 5.48 0.00 0.00 63 48.6
20260506092549 63 307 5.0 8.0 5.48 0.00 0.00 63 48.2
20260506092043 63 310 5.0 9.0 5.48 0.00 0.00 63 47.7
20260506091523 64 311 6.0 10.0 5.48 0.00 0.00 64 47.3
20260506091044 64 317 7.0 15.0 5.48 0.00 0.00 64 47.3
20260506090537 63 314 6.0 12.0 5.48 0.00 0.00 63 47.4
20260506090022 63 313 6.0 10.0 5.48 0.00 0.00 63 47.6
20260506085623 63 309 4.0 8.0 5.48 0.00 0.00 63 47.3
20260506085127 63 314 5.0 10.0 5.48 0.00 0.00 63 47.3
20260506084523 63 314 4.0 8.0 5.48 0.00 0.00 63 47.4
20260506084022 63 312 4.0 6.0 5.49 0.00 0.00 63 47.3
20260506083524 64 308 3.0 5.0 5.49 0.00 0.00 64 46.6
20260506083044 64 315 4.0 8.0 5.49 0.00 0.00 64 45.6
20260506082646 64 319 4.0 9.0 5.49 0.00 0.00 64 45.8
20260506082142 64 318 4.0 8.0 5.49 0.00 0.00 64 45.9
20260506081527 64 312 4.0 9.0 5.49 0.00 0.00 64 46.1
20260506081049 64 314 4.0 7.0 5.49 0.00 0.00 64 46.1
20260506080527 64 312 4.0 8.0 5.49 0.00 0.00 64 45.5
20260506073524 65 321 4.0 6.0 5.50 0.00 0.00 65 43.9
20260506073026 65 326 3.0 8.0 5.50 0.00 0.00 65 43.6
20260506072635 65 330 3.0 7.0 5.50 0.00 0.00 65 43.4
20260506072127 65 321 4.0 7.0 5.50 0.00 0.00 65 43.2
20260506071607 65 330 4.0 8.0 5.50 0.00 0.00 65 43.3
20260506071256 65 320 3.0 7.0 5.51 0.00 0.00 65 43.6
20260506070727 65 316 4.0 7.0 5.51 0.00 0.00 65 43.3
20260506062041 66 298 7.0 11.0 5.52 0.00 0.00 66 42.4
20260506061524 66 306 4.0 10.0 5.52 0.00 0.00 66 42.6
20260506061044 66 309 5.0 9.0 5.52 0.00 0.00 66 42.6
20260506060550 66 306 5.0 9.0 5.52 0.00 0.00 66 41.8
20260506051042 68 327 5.0 10.0 5.54 0.00 0.00 68 39.6
20260506050524 68 336 4.0 8.0 5.54 0.00 0.00 68 39.4
20260506045121 68 339 4.0 10.0 5.54 0.00 0.00 68 38.9
20260506044522 69 337 5.0 13.0 5.54 0.00 0.00 69 38.6
20260506044047 69 342 6.0 14.0 5.54 0.00 0.00 69 38.6
20260506043545 69 340 5.0 11.0 5.55 0.00 0.00 69 38.6
20260506043031 69 337 6.0 14.0 5.55 0.00 0.00 69 38.6
20260506042642 69 335 6.0 13.0 5.55 0.00 0.00 69 38.5
20260506042133 69 340 5.0 11.0 5.55 0.00 0.00 69 38.2
20260506041539 69 349 7.0 15.0 5.55 0.00 0.00 69 38.0
20260506041108 69 344 7.0 18.0 5.55 0.00 0.00 69 37.8
20260506040544 70 354 8.0 16.0 5.55 0.00 0.00 70 37.6
20260506040044 70 353 6.0 13.0 5.56 0.00 0.00 70 37.4
20260506035558 70 353 10.0 20.0 5.56 0.00 0.00 70 37.1
20260506035103 70 358 8.0 19.0 5.56 0.00 0.00 70 37.0
20260506034525 70 357 8.0 16.0 5.56 0.00 0.00 70 36.8
20260506034024 70 356 9.0 18.0 5.56 0.00 0.00 70 36.4
20260506033522 71 356 9.0 19.0 5.56 0.00 0.00 71 36.2
20260506033022 71 359 8.0 16.0 5.67 0.00 0.00 71 36.1
20260506032628 71 359 8.0 20.0 6.04 0.00 0.00 71 36.0
20260506032144 71 356 7.0 17.0 6.72 0.00 0.00 71 35.6
20260506031523 71 353 9.0 19.0 7.70 0.00 0.00 71 35.3
20260506031105 71 352 7.0 16.0 9.81 0.00 0.00 71 35.1
20260506030528 72 356 8.0 19.0 1.39 0.00 0.00 72 34.8
20260506030021 72 357 8.0 17.0 1.95 0.00 0.00 72 34.5
20260506025600 72 349 8.0 17.0 2.65 0.00 0.00 72 34.1
20260506025052 72 354 7.0 14.0 3.50 0.00 0.00 72 33.8
20260506024606 73 350 7.0 19.0 4.51 0.00 0.00 73 33.5
20260506024024 73 354 9.0 18.0 5.68 0.00 0.00 73 32.9